Location: Newark
(7.0858°N, 171.3717°E)
Time: 07:37:37
(UTC+00:00)

Courier 1B - Pass Details

Date: 04 December 2020
Orbit: 962 x 1209 km, 28.3° (Epoch: 20 January)

Event Time Altitude Azimuth Distance (km) Brightness Sun altitude
Rises 07:19:31 0° 271° (W) 3,647 11.8 -15.3°
Reaches altitude 10° 07:22:38 10° 283° (WNW) 2,687 10.6 -16.0°
Maximum altitude 07:27:54 26° 338° (NNW) 1,791 8.9 -17.2°
Enters shadow 07:31:39 16° 23° (NNE) 2,300 9.1 -18.1°
Drops below altitude 10° 07:33:11 10° 33° (NNE) 2,704 - -18.5°
Sets 07:36:21 0° 46° (NE) 3,674 - -19.2°
